FW7943 Weather Reports


time (UTC)temp
F
wind
direction
speed
knots
gust
knots
rain 1hr
in
rain 24hr
in
rain mn
in
humidity
%
barometer
mb
20260508033601 45 313 0.0 0.0 0.00 0.01 0.01 71 1015.2
20260508033059 45 313 0.0 0.0 0.00 0.01 0.01 71 1015.2
20260508032555 45 313 0.0 0.0 0.00 0.01 0.01 72 1015.2
20260508032053 45 313 0.0 0.0 0.00 0.01 0.01 72 1015.3
20260508031550 46 313 0.0 0.0 0.00 0.01 0.01 71 1015.1
20260508031046 46 313 0.0 0.0 0.00 0.01 0.01 69 1015.4
20260508030542 46 313 0.0 0.0 0.00 0.01 0.01 69 1015.3
20260508030041 46 313 0.0 0.0 0.00 0.01 0.01 69 1015.1
20260508025536 46 313 0.0 0.0 0.00 0.01 0.01 72 1014.7
20260508025034 46 311 0.0 0.0 0.00 0.01 0.01 72 1015.1
20260508024529 46 314 0.0 0.0 0.00 0.01 0.01 72 1014.9
20260508024027 46 323 0.0 0.0 0.00 0.01 0.01 72 1015.0
20260508023523 46 323 0.0 0.0 0.00 0.01 0.01 71 1015.0
20260508023021 46 323 0.0 0.0 0.00 0.01 0.01 71 1014.7
20260508022516 46 323 0.0 0.0 0.00 0.01 0.01 72 1014.7
20260508022013 46 325 0.0 0.0 0.00 0.01 0.01 72 1014.6
20260508021509 47 325 0.0 0.0 0.00 0.01 0.01 73 1014.5
20260508021005 47 324 0.0 0.0 0.00 0.01 0.01 71 1014.6
20260508020503 47 323 0.0 0.0 0.00 0.01 0.01 71 1014.3
20260508020000 48 331 0.0 0.0 0.00 0.01 0.01 70 1014.6
20260508015458 48 335 0.0 0.0 0.00 0.01 0.01 70 1014.2
20260508014954 48 335 0.0 0.0 0.00 0.01 0.01 70 1014.2
20260508014451 48 334 0.0 0.0 0.00 0.01 0.01 69 1014.2
20260508013947 48 310 0.0 0.0 0.00 0.01 0.01 69 1014.2
20260508013443 49 327 0.0 0.0 0.00 0.01 0.01 69 1014.0
20260508012941 49 327 0.0 0.0 0.00 0.01 0.01 68 1014.0
20260508012437 49 327 0.0 0.0 0.00 0.01 0.01 68 1013.9
20260508011935 49 327 0.0 0.0 0.00 0.01 0.01 69 1013.8
20260508011434 49 327 0.0 0.0 0.00 0.01 0.01 68 1014.0
20260508010930 49 338 0.9 0.9 0.00 0.01 0.01 69 1013.6
20260508010427 49 339 0.0 0.0 0.00 0.01 0.01 68 1013.6
20260508005924 50 339 0.0 0.0 0.00 0.01 0.01 68 1013.6
20260508005421 50 339 0.0 0.0 0.00 0.01 0.01 67 1013.7
20260508004917 50 335 0.0 0.0 0.00 0.01 0.01 66 1013.6
20260508004413 50 334 0.0 0.0 0.00 0.01 0.01 65 1013.8
20260508003910 51 334 0.0 0.9 0.00 0.01 0.01 65 1013.6
20260508003407 51 335 0.0 0.0 0.00 0.01 0.01 65 1013.5
20260508002904 51 330 0.0 0.0 0.00 0.01 0.01 64 1013.6
20260508002400 51 329 0.9 0.9 0.00 0.01 0.01 63 1013.5
20260508001857 52 335 0.9 0.9 0.00 0.01 0.01 62 1013.3
20260508001353 52 330 0.9 0.9 0.00 0.01 0.01 63 1013.1
20260508000849 52 337 0.9 1.7 0.00 0.01 0.01 62 1013.3
20260508000346 52 326 0.9 1.7 0.00 0.01 0.01 63 1013.2
20260507235842 52 323 0.0 0.9 0.00 0.01 0.01 63 1013.1
20260507235340 52 328 2.6 4.3 0.00 0.01 0.01 60 1013.1
20260507234837 53 338 2.6 4.3 0.00 0.01 0.01 60 1013.3
20260507234333 53 329 0.9 0.9 0.00 0.01 0.01 62 1013.1
20260507233830 53 275 2.6 2.6 0.00 0.01 0.01 61 1013.1
20260507233328 54 346 1.7 1.7 0.00 0.01 0.01 60 1012.9
20260507232826 54 336 0.9 1.7 0.00 0.01 0.01 59 1013.2
20260507232322 54 326 5.2 7.8 0.00 0.01 0.01 59 1012.7
20260507231819 54 344 1.7 2.6 0.00 0.01 0.01 60 1013.2
20260507231316 54 339 1.7 1.7 0.00 0.01 0.01 59 1013.1
20260507230812 54 297 2.6 2.6 0.00 0.01 0.01 60 1012.9
20260507230310 53 342 2.6 4.3 0.00 0.01 0.01 62 1013.2
20260507225810 54 334 1.7 2.6 0.00 0.01 0.01 62 1012.7
20260507225306 54 338 0.9 0.9 0.00 0.01 0.01 61 1012.8
20260507224802 54 312 2.6 2.6 0.00 0.01 0.01 61 1012.5
20260507224259 54 277 2.6 2.6 0.00 0.01 0.01 63 1012.6
20260507223755 55 306 2.6 2.6 0.00 0.01 0.01 63 1012.7
20260507223251 55 306 1.7 2.6 0.00 0.01 0.01 60 1012.5
20260507222749 55 318 2.6 2.6 0.00 0.01 0.01 61 1012.7
20260507222245 55 27 2.6 2.6 0.00 0.01 0.01 62 1012.5
20260507221742 56 309 2.6 2.6 0.00 0.01 0.01 63 1012.3
20260507221238 57 318 3.5 4.3 0.00 0.01 0.01 59 1012.4
20260507220735 56 327 2.6 2.6 0.00 0.01 0.01 63 1012.3
20260507220233 57 331 1.7 1.7 0.00 0.01 0.01 61 1012.3
20260507215729 56 33 2.6 2.6 0.00 0.01 0.01 61 1012.5
20260507215227 55 343 0.0 0.9 0.00 0.01 0.01 63 1012.2
20260507214724 55 332 2.6 2.6 0.00 0.01 0.01 63 1012.0
20260507214221 55 297 2.6 2.6 0.00 0.01 0.01 64 1012.3
20260507213716 55 302 2.6 4.3 0.00 0.01 0.01 63 1012.3
20260507213213 56 345 0.9 0.9 0.00 0.01 0.01 61 1012.3
20260507212709 57 290 0.9 1.7 0.00 0.01 0.01 63 1012.1
20260507212206 56 326 5.2 7.0 0.00 0.01 0.01 59 1012.0
20260507211703 55 53 1.7 1.7 0.00 0.01 0.01 63 1011.8
20260507211158 56 302 1.7 2.6 0.00 0.01 0.01 62 1012.1
20260507210656 56 354 1.7 1.7 0.00 0.01 0.01 62 1011.9
20260507210153 55 337 2.6 2.6 0.00 0.01 0.01 63 1012.0
20260507205649 56 334 0.9 1.7 0.00 0.01 0.01 62 1011.8
20260507205146 56 325 0.9 0.9 0.00 0.01 0.01 64 1012.1
20260507204642 57 347 1.7 1.7 0.00 0.01 0.01 62 1012.0
20260507204140 55 328 1.7 2.6 0.00 0.01 0.01 64 1012.0
20260507203637 55 352 1.7 1.7 0.00 0.01 0.01 63 1011.7
20260507203135 55 325 2.6 2.6 0.00 0.01 0.01 63 1011.6
20260507202630 54 308 1.7 2.6 0.00 0.01 0.01 66 1011.9
20260507202127 54 349 1.7 1.7 0.00 0.01 0.01 66 1012.0
20260507201622 54 322 0.9 0.9 0.00 0.01 0.01 66 1011.9
20260507201119 54 337 0.9 1.7 0.00 0.01 0.01 66 1011.9
20260507200615 55 12 3.5 5.2 0.00 0.01 0.01 63 1012.2
20260507200111 55 330 2.6 2.6 0.00 0.01 0.01 63 1012.0
20260507195608 55 327 2.6 2.6 0.00 0.01 0.01 63 1012.1
20260507195106 55 327 0.9 1.7 0.00 0.01 0.01 65 1012.4
20260507194602 55 311 0.9 0.9 0.00 0.01 0.01 66 1012.3
20260507194057 54 311 0.9 1.7 0.00 0.01 0.01 65 1012.2
20260507193555 54 331 2.6 2.6 0.00 0.01 0.01 67 1012.3
20260507193052 55 286 2.6 4.3 0.00 0.01 0.01 64 1012.2
20260507192548 55 293 1.7 1.7 0.00 0.01 0.01 64 1012.3
20260507192045 55 344 3.5 6.1 0.00 0.01 0.01 67 1012.5
20260507191541 53 345 0.9 1.7 0.00 0.01 0.01 69 1012.5
20260507191038 53 332 0.9 0.9 0.00 0.01 0.01 69 1012.5
20260507190535 53 340 0.9 0.9 0.00 0.01 0.01 69 1012.5
20260507190034 52 337 0.9 0.9 0.00 0.01 0.01 70 1012.7
20260507185532 52 317 2.6 2.6 0.00 0.01 0.01 70 1012.7
20260507185028 53 282 3.5 4.3 0.00 0.01 0.01 68 1012.7
20260507184526 53 277 3.5 4.3 0.00 0.01 0.01 69 1012.8
20260507184024 52 319 0.0 0.9 0.00 0.01 0.01 71 1012.9
20260507183519 51 331 0.9 1.7 0.00 0.01 0.01 72 1013.1
20260507183017 51 316 2.6 2.6 0.00 0.01 0.01 73 1013.4
20260507182513 52 309 2.6 2.6 0.00 0.01 0.01 72 1013.2
20260507182009 52 352 2.6 2.6 0.00 0.01 0.01 72 1012.8
20260507181506 52 280 1.7 2.6 0.00 0.01 0.01 72 1012.8
20260507181002 52 356 2.6 2.6 0.00 0.01 0.01 71 1012.8
20260507180459 52 301 2.6 2.6 0.00 0.01 0.01 71 1012.9
20260507175955 52 345 3.5 4.3 0.00 0.01 0.01 70 1012.9
20260507175452 52 286 3.5 5.2 0.00 0.01 0.01 70 1012.6
20260507174949 53 337 0.9 1.7 0.00 0.01 0.01 69 1012.6
20260507174446 52 348 1.7 1.7 0.00 0.01 0.01 67 1012.8
20260507173943 52 359 1.7 1.7 0.00 0.01 0.01 67 1012.8
20260507173441 52 333 1.7 1.7 0.00 0.01 0.01 69 1013.1
20260507172937 52 290 3.5 4.3 0.00 0.01 0.01 67 1012.8
20260507172434 53 334 1.7 1.7 0.00 0.01 0.01 64 1013.1
20260507171931 53 326 1.7 1.7 0.00 0.01 0.01 63 1013.3
20260507171426 53 351 1.7 1.7 0.00 0.01 0.01 63 1013.1
20260507170924 54 334 1.7 1.7 0.00 0.01 0.01 64 1012.9
20260507170420 55 356 0.9 1.7 0.00 0.01 0.01 62 1013.1
20260507165917 52 341 0.9 0.9 0.00 0.01 0.01 64 1013.3
20260507165413 52 340 2.6 2.6 0.00 0.01 0.01 64 1013.1
20260507164909 51 359 0.0 0.9 0.00 0.01 0.01 65 1013.2
20260507164406 51 331 1.7 1.7 0.00 0.01 0.01 64 1013.2
20260507163903 51 346 2.6 2.6 0.00 0.01 0.01 64 1013.4
20260507163401 51 356 0.9 0.9 0.00 0.01 0.01 65 1013.3
20260507162857 52 335 1.7 1.7 0.00 0.01 0.01 66 1013.3
20260507162352 54 346 1.7 1.7 0.00 0.01 0.01 59 1013.4
20260507161850 53 349 1.7 1.7 0.00 0.01 0.01 62 1013.2
20260507161346 52 332 0.9 0.9 0.00 0.01 0.01 61 1013.1
20260507160843 51 341 0.0 0.0 0.00 0.01 0.01 65 1013.2
20260507160338 52 5 3.5 4.3 0.00 0.01 0.01 62 1013.6
20260507155835 51 96 2.6 2.6 0.00 0.01 0.01 63 1013.4
20260507155331 51 355 2.6 4.3 0.00 0.01 0.01 63 1013.4
20260507154828 51 11 1.7 1.7 0.00 0.01 0.01 63 1013.3
20260507154325 51 17 0.9 1.7 0.00 0.01 0.01 63 1013.5
20260507153822 50 73 1.7 1.7 0.00 0.01 0.01 65 1013.6
20260507153318 51 324 2.6 2.6 0.00 0.01 0.01 65 1013.4
20260507152815 50 15 0.9 1.7 0.00 0.01 0.01 69 1013.6
20260507152311 50 324 1.7 1.7 0.00 0.01 0.01 66 1013.4
20260507151807 50 329 0.9 0.9 0.00 0.01 0.01 66 1013.6
20260507151303 51 23 1.7 4.3 0.00 0.01 0.01 67 1013.3
20260507150801 50 25 0.9 0.9 0.00 0.01 0.01 65 1013.6
20260507150257 50 11 1.7 1.7 0.00 0.01 0.01 65 1013.7
20260507145753 50 8 0.9 0.9 0.00 0.01 0.01 66 1013.9
20260507145250 50 353 0.9 1.7 0.00 0.01 0.01 68 1013.8
20260507144747 49 113 1.7 1.7 0.00 0.01 0.01 67 1013.7
20260507144244 49 343 1.7 1.7 0.00 0.01 0.01 69 1013.7
20260507143741 48 1 0.9 0.9 0.00 0.01 0.01 72 1013.4
20260507143238 49 313 1.7 1.7 0.00 0.01 0.01 73 1013.6
20260507142734 48 28 0.9 0.9 0.00 0.01 0.01 72 1013.5
20260507142231 48 74 3.5 4.3 0.00 0.01 0.01 73 1013.5
20260507141727 48 63 0.9 1.7 0.00 0.01 0.01 76 1013.7
20260507141224 48 354 0.0 0.9 0.00 0.01 0.01 78 1013.6
20260507140720 47 347 3.5 5.2 0.00 0.01 0.01 79 1013.9
20260507140218 47 314 0.9 0.9 0.00 0.01 0.01 81 1013.9
20260507135715 47 358 1.7 1.7 0.00 0.01 0.01 82 1014.0
20260507135212 47 340 1.7 2.6 0.00 0.01 0.01 84 1013.8
20260507134708 47 337 0.9 0.9 0.00 0.01 0.01 84 1013.8
20260507134205 46 352 1.7 1.7 0.00 0.01 0.01 84 1014.0
20260507133700 46 334 0.0 0.0 0.00 0.01 0.01 84 1014.1
20260507133158 46 329 0.0 0.9 0.00 0.01 0.01 85 1014.1
20260507132655 46 14 0.9 0.9 0.00 0.01 0.01 87 1014.1
20260507132151 45 343 0.9 0.9 0.00 0.01 0.01 86 1014.3
20260507131648 45 356 0.0 0.9 0.00 0.01 0.01 88 1013.9
20260507131146 45 328 0.9 1.7 0.00 0.01 0.01 89 1014.0
20260507130642 46 11 0.0 0.0 0.00 0.01 0.01 89 1014.0
20260507130140 46 337 0.9 0.9 0.00 0.01 0.01 89 1014.1
20260507125639 45 349 0.0 0.0 0.00 0.01 0.01 89 1014.0
20260507125136 45 358 0.0 0.0 0.00 0.01 0.01 90 1013.8
20260507124632 45 353 0.0 0.0 0.00 0.01 0.01 89 1014.2
20260507124130 45 15 0.9 0.9 0.00 0.01 0.01 89 1014.5
20260507123628 45 324 0.9 0.9 0.00 0.01 0.01 90 1014.5
20260507123125 45 335 0.0 0.0 0.00 0.01 0.01 90 1014.2
20260507122620 45 341 0.0 0.0 0.00 0.01 0.01 90 1014.0
20260507122116 44 349 0.9 0.9 0.00 0.01 0.01 90 1014.1
20260507121612 45 342 0.0 0.9 0.00 0.01 0.01 91 1014.0
20260507121108 45 332 0.0 0.0 0.00 0.01 0.01 91 1013.9
20260507120604 44 332 0.0 0.0 0.00 0.01 0.01 91 1013.9
20260507115557 44 345 0.9 0.9 0.00 0.01 0.01 92 1014.0
20260507115053 44 325 0.0 0.9 0.00 0.01 0.01 93 1013.9
20260507114549 44 358 0.0 0.9 0.00 0.01 0.01 92 1014.0
20260507114047 44 21 1.7 1.7 0.00 0.01 0.01 93 1013.8
20260507113543 44 3 0.9 0.9 0.00 0.01 0.01 93 1014.0
20260507113041 44 350 0.0 0.0 0.00 0.01 0.01 94 1013.7
20260507112539 44 325 0.0 0.0 0.00 0.01 0.01 95 1013.8
20260507112035 44 324 0.0 0.0 0.00 0.01 0.01 95 1013.8
20260507111532 44 323 0.0 0.0 0.00 0.01 0.01 96 1013.7
20260507111029 44 354 0.0 0.0 0.00 0.01 0.01 96 1013.8
20260507110525 44 357 0.0 0.0 0.00 0.01 0.01 97 1013.6
20260507110022 44 4 0.9 0.9 0.00 0.01 0.01 97 1013.6
20260507105519 44 331 0.0 0.0 0.00 0.01 0.01 97 1013.7
20260507105015 44 337 0.9 0.9 0.00 0.01 0.01 98 1013.6
20260507104513 44 1 0.9 0.9 0.00 0.01 0.01 99 1013.3
20260507104008 44 343 0.9 0.9 0.00 0.01 0.01 99 1013.4
20260507103505 44 335 0.0 0.0 0.00 0.01 0.01 99 1013.4
20260507103001 44 353 1.7 1.7 0.00 0.01 0.01 99 1013.3
20260507102458 44 339 0.9 0.9 0.00 0.01 0.01 99 1013.5
20260507101954 45 340 0.9 0.9 0.00 0.01 0.01 99 1013.2
20260507101449 44 337 0.0 0.0 0.00 0.01 0.01 99 1013.4
20260507100946 44 326 0.9 0.9 0.00 0.01 0.01 99 1013.2
20260507100444 45 327 0.9 0.9 0.00 0.01 0.01 99 1013.1
20260507095942 45 349 0.9 0.9 0.00 0.01 0.01 99 1012.8
20260507095439 45 348 1.7 1.7 0.00 0.01 0.01 99 1012.9
20260507094936 45 352 0.0 0.0 0.00 0.01 0.01 99 1012.8
20260507094432 45 335 0.9 0.9 0.00 0.01 0.01 99 1013.2
20260507093929 46 346 0.9 0.9 0.00 0.01 0.01 99 1013.2
20260507093427 46 25 0.0 1.7 0.00 0.01 0.01 99 1013.2
20260507092925 46 330 0.9 0.9 0.00 0.01 0.01 99 1013.2
20260507092421 46 354 0.0 0.9 0.00 0.01 0.01 99 1013.3
20260507091918 46 350 0.9 1.7 0.00 0.01 0.01 99 1013.3
20260507091414 46 355 0.0 0.9 0.00 0.01 0.01 99 1013.3
20260507090910 46 341 0.0 0.9 0.00 0.01 0.01 99 1013.3
20260507090407 46 336 0.0 0.9 0.00 0.01 0.01 99 1012.9
20260507085903 46 335 0.0 0.0 0.00 0.01 0.01 99 1012.8
20260507085400 47 358 0.0 0.0 0.00 0.01 0.01 99 1012.9
20260507084858 47 349 0.0 0.0 0.00 0.01 0.01 99 1012.7
20260507084354 46 347 0.0 0.0 0.00 0.01 0.01 99 1013.2
20260507083851 47 348 0.0 0.0 0.00 0.01 0.01 99 1013.2
20260507083347 46 353 0.0 0.0 0.00 0.01 0.01 99 1013.3
20260507082844 46 342 0.0 0.0 0.00 0.01 0.01 99 1012.9
20260507082339 46 4 0.9 0.9 0.00 0.01 0.01 99 1013.4
20260507081837 46 333 0.9 0.9 0.00 0.01 0.01 99 1013.2
20260507081333 47 344 0.0 0.0 0.00 0.01 0.01 99 1012.9
20260507080830 47 342 0.0 0.0 0.00 0.01 0.01 99 1013.2
20260507080326 47 350 1.7 1.7 0.00 0.01 0.01 99 1013.5
20260507075821 47 348 1.7 1.7 0.00 0.01 0.01 99 1013.5
20260507075318 47 318 0.9 1.7 0.00 0.01 0.01 99 1013.3
20260507074814 47 331 0.0 0.0 0.00 0.01 0.01 99 1013.2
20260507074312 47 340 0.9 0.9 0.00 0.01 0.01 99 1012.9
20260507073809 47 340 0.0 0.0 0.00 0.01 0.01 99 1013.1
20260507073306 47 345 0.0 0.0 0.00 0.01 0.01 99 1013.1
20260507072803 47 337 0.0 0.9 0.00 0.01 0.01 99 1013.2
20260507072300 47 342 0.0 0.0 0.00 0.01 0.01 99 1013.1
20260507071758 47 349 0.0 0.0 0.00 0.01 0.01 99 1013.2
20260507071254 47 349 0.0 0.9 0.07 0.01 0.01 99 1013.1
20260507070751 47 346 0.0 0.0 0.07 0.01 0.01 99 1013.3
20260507070248 47 351 0.0 0.0 0.00 0.00 0.00 99 1013.3
20260507065744 47 13 0.9 1.7 0.00 0.00 0.00 99 1013.1
20260507065241 47 350 0.0 0.0 0.00 0.00 0.00 99 1013.2
20260507064738 47 352 2.6 2.6 0.00 0.00 0.00 99 1013.3
20260507064238 48 331 0.0 0.0 0.00 0.00 0.00 99 1013.5
20260507063734 48 340 0.0 0.9 0.00 0.00 0.00 99 1013.6
20260507063231 48 344 2.6 2.6 0.00 0.00 0.00 99 1013.5
20260507062728 48 351 1.7 1.7 0.00 0.00 0.00 99 1013.2
20260507062225 48 346 0.0 0.0 0.00 0.00 0.00 99 1013.5
20260507061723 48 337 0.9 0.9 0.00 0.00 0.00 99 1013.9
20260507061221 48 322 0.0 0.0 0.00 0.00 0.00 99 1013.5
20260507060719 48 335 0.0 0.0 0.00 0.00 0.00 99 1013.3
20260507060215 48 334 0.0 0.0 0.00 0.00 0.00 99 1013.1
20260507055711 48 332 0.0 0.0 0.00 0.00 0.00 99 1013.1
20260507055207 48 331 0.0 0.0 0.00 0.00 0.00 99 1013.3
20260507054703 48 277 1.7 1.7 0.00 0.00 0.00 99 1013.2
20260507054200 48 356 1.7 1.7 0.00 0.00 0.00 99 1013.6
20260507053658 48 338 0.9 1.7 0.00 0.00 0.00 99 1013.8
20260507053156 48 334 0.9 0.9 0.00 0.00 0.00 99 1013.6
20260507052654 48 343 1.7 1.7 0.00 0.00 0.00 99 1013.5
20260507052150 49 311 1.7 2.6 0.00 0.00 0.00 99 1013.4
20260507051648 49 325 0.9 1.7 0.00 0.00 0.00 99 1013.9
20260507051144 49 336 0.9 0.9 0.00 0.00 0.00 99 1013.9
20260507050641 49 355 2.6 4.3 0.00 0.00 0.00 99 1013.9
20260507050138 50 314 1.7 1.7 0.00 0.00 0.00 99 1013.7
20260507045635 50 310 1.7 2.6 0.00 0.00 0.00 99 1013.6
20260507045131 50 325 0.0 0.0 0.00 0.00 0.00 99 1013.8
20260507044629 50 328 0.9 0.9 0.00 0.00 0.00 99 1013.8
20260507044125 50 318 1.7 1.7 0.00 0.00 0.00 99 1013.8
20260507043621 50 330 0.9 0.9 0.00 0.00 0.00 99 1013.7
20260507043118 50 325 0.9 0.9 0.00 0.00 0.00 99 1013.6
20260507042614 50 333 1.7 1.7 0.00 0.00 0.00 99 1013.7
20260507042110 50 337 0.9 1.7 0.00 0.00 0.00 99 1013.8
20260507041607 50 1 2.6 2.6 0.00 0.00 0.00 99 1013.9
20260507041104 50 345 0.9 0.9 0.00 0.00 0.00 99 1013.8
20260507040600 50 336 0.9 1.7 0.00 0.00 0.00 99 1013.4
20260507040057 51 343 1.7 1.7 0.00 0.00 0.00 99 1013.7
20260507035553 51 354 0.9 1.7 0.00 0.54 0.54 99 1013.2
20260507035049 51 327 2.6 2.6 0.00 0.54 0.54 99 1013.4
20260507034546 51 353 0.0 0.0 0.00 0.54 0.54 99 1013.3
20260507034044 51 321 0.9 1.7 0.00 0.54 0.54 99 1013.5